| time (UTC) | temp F | wind direction | speed MPH | gust MPH | rain 1hr in | rain 24hr in | rain mn in | humidity % | barometer mb |
| 20260503002017 | 86 | 23 | 5.0 | 14.0 | 0.00 | 0.00 | 0.00 | 19 | 1012.7 |
| 20260503001016 | 86 | 68 | 6.0 | 10.0 | 0.00 | 0.00 | 0.00 | 19 | 1012.6 |
| 20260503000016 | 87 | 23 | 5.0 | 10.0 | 0.00 | 0.00 | 0.00 | 19 | 1012.7 |
| 20260502235036 | 87 | 45 | 6.0 | 11.0 | 0.00 | 0.00 | 0.00 | 19 | 1013.0 |
| 20260502234016 | 87 | 23 | 4.0 | 7.0 | 0.00 | 0.00 | 0.00 | 19 | 1012.9 |
| 20260502233017 | 86 | 45 | 5.0 | 12.0 | 0.00 | 0.00 | 0.00 | 20 | 1012.6 |
| 20260502232016 | 86 | 158 | 4.0 | 7.0 | 0.00 | 0.00 | 0.00 | 18 | 1013.1 |
| 20260502231017 | 86 | 315 | 2.0 | 5.0 | 0.00 | 0.00 | 0.00 | 20 | 1012.9 |
| 20260502230016 | 86 | 0 | 4.0 | 8.0 | 0.00 | 0.00 | 0.00 | 20 | 1013.3 |
| 20260502225016 | 87 | 293 | 3.0 | 5.0 | 0.00 | 0.00 | 0.00 | 17 | 1013.0 |
| 20260502224016 | 88 | 315 | 3.0 | 6.0 | 0.00 | 0.00 | 0.00 | 17 | 1013.2 |
| 20260502223036 | 89 | 203 | 2.0 | 6.0 | 0.00 | 0.00 | 0.00 | 16 | 1013.4 |
| 20260502222016 | 88 | 225 | 7.0 | 12.0 | 0.00 | 0.00 | 0.00 | 17 | 1013.1 |
| 20260502221017 | 88 | 270 | 4.0 | 11.0 | 0.00 | 0.00 | 0.00 | 17 | 1013.1 |
| 20260502220016 | 86 | 225 | 2.0 | 6.0 | 0.00 | 0.00 | 0.00 | 17 | 1013.1 |
| 20260502215016 | 85 | 225 | 4.0 | 8.0 | 0.00 | 0.00 | 0.00 | 18 | 1013.2 |
| 20260502214016 | 85 | 203 | 4.0 | 9.0 | 0.00 | 0.00 | 0.00 | 19 | 1013.2 |
| 20260502213017 | 86 | 113 | 6.0 | 14.0 | 0.00 | 0.00 | 0.00 | 18 | 1013.5 |
| 20260502212016 | 86 | 113 | 2.0 | 6.0 | 0.00 | 0.00 | 0.00 | 18 | 1013.3 |
| 20260502211017 | 86 | 113 | 6.0 | 11.0 | 0.00 | 0.00 | 0.00 | 18 | 1013.5 |
| 20260502210016 | 85 | 68 | 6.0 | 14.0 | 0.00 | 0.00 | 0.00 | 20 | 1013.6 |
| 20260502205016 | 86 | 90 | 8.0 | 15.0 | 0.00 | 0.00 | 0.00 | 20 | 1014.1 |
| 20260502204036 | 87 | 158 | 5.0 | 9.0 | 0.00 | 0.00 | 0.00 | 20 | 1014.3 |
| 20260502203036 | 88 | 90 | 10.0 | 15.0 | 0.00 | 0.00 | 0.00 | 19 | 1014.5 |
| 20260502202016 | 88 | 23 | 5.0 | 11.0 | 0.00 | 0.00 | 0.00 | 19 | 1014.8 |
| 20260502201016 | 87 | 315 | 4.0 | 9.0 | 0.00 | 0.00 | 0.00 | 19 | 1014.8 |
| 20260502200016 | 86 | 0 | 3.0 | 9.0 | 0.00 | 0.00 | 0.00 | 19 | 1015.0 |
| 20260502195016 | 85 | 68 | 8.0 | 16.0 | 0.00 | 0.00 | 0.00 | 18 | 1015.2 |
| 20260502194016 | 85 | 68 | 9.0 | 17.0 | 0.00 | 0.00 | 0.00 | 20 | 1015.3 |
| 20260502193016 | 85 | 45 | 11.0 | 18.0 | 0.00 | 0.00 | 0.00 | 20 | 1015.4 |
| 20260502192016 | 85 | 23 | 11.0 | 18.0 | 0.00 | 0.00 | 0.00 | 18 | 1015.8 |
| 20260502191016 | 85 | 45 | 9.0 | 19.0 | 0.00 | 0.00 | 0.00 | 23 | 1015.8 |
| 20260502190016 | 84 | 45 | 9.0 | 20.0 | 0.00 | 0.00 | 0.00 | 25 | 1016.1 |
| 20260502185016 | 83 | 45 | 12.0 | 19.0 | 0.00 | 0.00 | 0.00 | 25 | 1016.2 |
| 20260502184037 | 83 | 23 | 12.0 | 21.0 | 0.00 | 0.00 | 0.00 | 26 | 1016.3 |
| 20260502182016 | 81 | 45 | 12.0 | 21.0 | 0.00 | 0.00 | 0.00 | 28 | 1016.0 |
| 20260502181016 | 80 | 45 | 14.0 | 21.0 | 0.00 | 0.00 | 0.00 | 29 | 1016.2 |
| 20260502164016 | 75 | 45 | 17.0 | 30.0 | 0.00 | 0.00 | 0.00 | 36 | 1016.3 |
| 20260502163016 | 75 | 68 | 18.0 | 31.0 | 0.00 | 0.00 | 0.00 | 36 | 1016.2 |
| 20260502162016 | 74 | 45 | 20.0 | 31.0 | 0.00 | 0.00 | 0.00 | 37 | 1015.9 |
| 20260502161016 | 74 | 45 | 17.0 | 28.0 | 0.00 | 0.00 | 0.00 | 37 | 1015.9 |
| 20260502152016 | 71 | 45 | 20.0 | 35.0 | 0.00 | 0.00 | 0.00 | 41 | 1016.2 |
| 20260502151016 | 70 | 45 | 21.0 | 32.0 | 0.00 | 0.00 | 0.00 | 41 | 1015.9 |
| 20260502123016 | 66 | 45 | 18.0 | 31.0 | 0.00 | 0.00 | 0.00 | 45 | 1014.7 |
| 20260502122016 | 66 | 45 | 17.0 | 28.0 | 0.00 | 0.00 | 0.00 | 46 | 1014.6 |
| 20260502121016 | 66 | 68 | 16.0 | 28.0 | 0.00 | 0.00 | 0.00 | 45 | 1014.5 |
| 20260502115016 | 66 | 45 | 15.0 | 26.0 | 0.00 | 0.00 | 0.00 | 42 | 1014.7 |
| 20260502114016 | 67 | 45 | 14.0 | 24.0 | 0.00 | 0.00 | 0.00 | 40 | 1014.8 |
| 20260502113016 | 67 | 45 | 16.0 | 22.0 | 0.00 | 0.00 | 0.00 | 37 | 1014.7 |
| 20260502112016 | 67 | 45 | 14.0 | 23.0 | 0.00 | 0.00 | 0.00 | 34 | 1014.8 |
| 20260502111016 | 68 | 68 | 13.0 | 22.0 | 0.00 | 0.00 | 0.00 | 31 | 1015.1 |
| 20260502110036 | 68 | 45 | 10.0 | 16.0 | 0.00 | 0.00 | 0.00 | 29 | 1015.0 |
| 20260502105016 | 68 | 68 | 9.0 | 16.0 | 0.00 | 0.00 | 0.00 | 28 | 1015.1 |
| 20260502104016 | 67 | 45 | 5.0 | 9.0 | 0.00 | 0.00 | 0.00 | 29 | 1014.8 |
| 20260502103036 | 66 | 23 | 6.0 | 12.0 | 0.00 | 0.00 | 0.00 | 30 | 1014.6 |
| 20260502102036 | 65 | 23 | 5.0 | 9.0 | 0.00 | 0.00 | 0.00 | 31 | 1014.5 |
| 20260502101016 | 63 | 45 | 7.0 | 11.0 | 0.00 | 0.00 | 0.00 | 33 | 1014.3 |
| 20260502091016 | 60 | 23 | 3.0 | 4.0 | 0.00 | 0.00 | 0.00 | 36 | 1014.0 |
| 20260502071016 | 70 | 158 | 1.0 | 3.0 | 0.00 | 0.00 | 0.00 | 27 | 1014.7 |
| 20260502070156 | 71 | 68 | 4.0 | 8.0 | 0.00 | 0.00 | 0.00 | 26 | 1014.6 |
| 20260502065036 | 71 | 45 | 7.0 | 11.0 | 0.00 | 0.00 | 0.00 | 26 | 1014.6 |
| 20260502064016 | 71 | 45 | 7.0 | 11.0 | 0.00 | 0.00 | 0.00 | 26 | 1014.5 |
| 20260502063016 | 70 | 45 | 6.0 | 10.0 | 0.00 | 0.00 | 0.00 | 27 | 1014.3 |
| 20260502062016 | 66 | 45 | 4.0 | 11.0 | 0.00 | 0.00 | 0.00 | 30 | 1013.8 |
| 20260502061056 | 64 | 23 | 4.0 | 7.0 | 0.00 | 0.00 | 0.00 | 31 | 1013.6 |
| 20260502060016 | 65 | 68 | 2.0 | 4.0 | 0.00 | 0.00 | 0.00 | 31 | 1013.6 |
| 20260502055016 | 66 | 0.0 | 0.0 | 0.00 | 0.00 | 0.00 | 30 | 1013.5 | |
| 20260502054016 | 67 | 225 | 1.0 | 5.0 | 0.00 | 0.00 | 0.00 | 29 | 1013.5 |
| 20260502053015 | 68 | 0.0 | 0.0 | 0.00 | 0.00 | 0.00 | 28 | 1013.2 | |
| 20260502052016 | 69 | 0.0 | 0.0 | 0.00 | 0.00 | 0.00 | 27 | 1013.1 | |
| 20260502051016 | 70 | 0.0 | 0.0 | 0.00 | 0.00 | 0.00 | 27 | 1013.0 | |
| 20260502050035 | 69 | 68 | 2.0 | 7.0 | 0.00 | 0.00 | 0.00 | 28 | 1013.0 |
| 20260502045016 | 67 | 113 | 1.0 | 4.0 | 0.00 | 0.00 | 0.00 | 29 | 1012.6 |
| 20260502044016 | 68 | 0.0 | 0.0 | 0.00 | 0.00 | 0.00 | 28 | 1012.6 | |
| 20260502043015 | 68 | 0.0 | 0.0 | 0.00 | 0.00 | 0.00 | 28 | 1012.6 | |
| 20260502042156 | 68 | 0.0 | 0.0 | 0.00 | 0.00 | 0.00 | 28 | 1012.3 | |
| 20260502041016 | 67 | 45 | 1.0 | 3.0 | 0.00 | 0.00 | 0.00 | 27 | 1012.2 |
| 20260502040016 | 68 | 45 | 2.0 | 3.0 | 0.00 | 0.00 | 0.00 | 28 | 1012.2 |
| 20260502035016 | 68 | 0.0 | 2.0 | 0.00 | 0.00 | 0.00 | 26 | 1011.8 | |
| 20260502034016 | 69 | 0.0 | 2.0 | 0.00 | 0.00 | 0.00 | 26 | 1012.0 | |
| 20260502033016 | 70 | 0.0 | 0.0 | 0.00 | 0.00 | 0.00 | 25 | 1011.9 | |
| 20260502032016 | 71 | 0.0 | 0.0 | 0.00 | 0.00 | 0.00 | 24 | 1011.7 | |
| 20260502031035 | 72 | 0.0 | 0.0 | 0.00 | 0.00 | 0.00 | 24 | 1011.6 | |
| 20260502030015 | 73 | 0.0 | 0.0 | 0.00 | 0.00 | 0.00 | 24 | 1011.7 | |
| 20260502025015 | 74 | 0.0 | 1.0 | 0.00 | 0.00 | 0.00 | 23 | 1011.3 | |
| 20260502024016 | 76 | 0.0 | 1.0 | 0.00 | 0.00 | 0.00 | 22 | 1011.4 | |
| 20260502023015 | 77 | 0.0 | 2.0 | 0.00 | 0.00 | 0.00 | 20 | 1011.5 | |
| 20260502022015 | 78 | 270 | 2.0 | 4.0 | 0.00 | 0.00 | 0.00 | 20 | 1011.3 |
| 20260502021016 | 79 | 270 | 2.0 | 5.0 | 0.00 | 0.00 | 0.00 | 20 | 1011.1 |
| 20260502020015 | 80 | 270 | 3.0 | 6.0 | 0.00 | 0.00 | 0.00 | 19 | 1011.2 |
| 20260502015015 | 81 | 270 | 2.0 | 4.0 | 0.00 | 0.00 | 0.00 | 19 | 1010.6 |
| 20260502014016 | 81 | 270 | 4.0 | 10.0 | 0.00 | 0.00 | 0.00 | 18 | 1010.5 |
| 20260502013055 | 82 | 248 | 5.0 | 8.0 | 0.00 | 0.00 | 0.00 | 17 | 1010.6 |
| 20260502012035 | 82 | 270 | 6.0 | 10.0 | 0.00 | 0.00 | 0.00 | 17 | 1010.6 |
| 20260502011016 | 82 | 270 | 7.0 | 11.0 | 0.00 | 0.00 | 0.00 | 18 | 1010.6 |
| 20260502010015 | 82 | 270 | 7.0 | 11.0 | 0.00 | 0.00 | 0.00 | 18 | 1010.5 |
| 20260502005036 | 82 | 270 | 7.0 | 12.0 | 0.00 | 0.00 | 0.00 | 18 | 1010.2 |
| 20260502004015 | 83 | 270 | 6.0 | 10.0 | 0.00 | 0.00 | 0.00 | 18 | 1010.1 |
| 20260502003035 | 83 | 270 | 6.0 | 11.0 | 0.00 | 0.00 | 0.00 | 17 | 1010.2 |